Theta_e
300 295 291 294 296 296 294 292 291 294 299 297 296 297 300 304 305 305 307 308 310 311 315 317 323 347 349 350 351 352 351 353 352 347 345 346 344 346 348 350 352 351 352 351
295 291 296 296 296 295 293 291 291 295 297 297 296 296 300 302 302 304 305 306 308 310 313 315 317 338 347 348 350 351 352 352 350 349 349 347 346 347 348 350 351 352 352 352
289 292 296 294 294 292 292 291 292 292 296 298 296 294 297 301 303 304 305 307 308 309 311 314 316 326 344 346 347 349 351 351 351 351 350 347 347 346 344 345 347 349 351 351
291 293 293 293 293 295 290 296 294 293 292 287 296 286 295 298 300 302 303 305 306 308 311 313 315 317 335 344 347 348 350 350 350 350 346 346 341 338 340 343 345 346 349 350
287 288 287 289 291 295 292 298 295 295 292 292 292 288 293 299 297 300 303 305 307 308 310 312 314 317 322 340 345 347 349 347 349 349 346 344 343 342 345 346 347 350 348 349
290 294 292 291 294 295 296 294 296 295 293 284 290 290 290 295 298 301 304 305 307 308 310 313 315 317 317 330 341 345 345 347 348 347 348 345 342 344 345 344 343 344 347 348
288 288 292 293 290 293 294 289 285 282 282 282 292 289 292 298 301 303 303 305 307 309 310 311 312 314 316 321 337 342 344 344 346 346 347 347 346 348 348 345 344 346 347 348
281 280 289 293 290 287 288 289 284 276 280 284 291 286 291 301 303 305 306 307 308 308 309 310 312 314 315 317 331 340 342 342 343 345 347 349 348 346 346 349 347 347 350 353
282 282 291 292 293 293 289 286 293 285 286 283 287 291 296 299 300 303 305 307 308 310 311 311 312 313 314 316 324 335 339 342 343 345 349 350 349 351 350 355 355 354 344 342
287 280 289 292 294 294 291 294 285 287 278 278 284 286 288 294 298 301 302 304 307 309 311 312 314 317 315 315 318 331 338 340 343 345 347 349 352 352 353 355 347 343 343 345
290 285 285 289 288 288 289 287 289 290 288 282 281 286 297 298 300 300 304 308 309 310 311 314 316 319 321 318 314 322 333 337 342 344 346 347 349 351 354 349 343 343 347 344
290 286 280 284 292 295 293 291 291 285 284 288 286 286 300 303 306 306 305 306 308 311 312 313 315 318 324 323 316 317 329 334 339 343 345 347 349 351 347 344 343 346 344 342
290 284 278 281 286 290 288 291 292 292 292 287 284 287 301 303 302 304 303 306 307 310 313 314 315 316 323 327 320 319 330 332 337 342 345 348 345 339 340 340 340 344 340 333
295 287 283 280 283 288 286 289 291 290 285 286 288 290 295 298 299 300 302 304 306 309 312 315 316 317 318 328 323 320 332 335 337 340 344 345 337 335 331 330 331 332 327 323
290 283 286 287 288 288 287 287 289 287 289 285 289 289 293 297 298 299 302 304 306 307 312 315 316 317 318 325 325 322 334 338 341 342 342 332 325 324 323 323 326 322 321 318
290 283 285 282 287 288 286 288 289 289 289 289 290 290 298 300 301 301 303 308 309 311 313 315 318 320 318 323 325 325 337 341 345 338 325 321 318 317 317 319 318 316 314 312
285 285 283 280 286 286 284 287 288 289 291 291 287 293 300 301 301 302 302 304 305 311 312 312 317 322 322 326 327 331 340 336 329 322 318 316 315 313 315 316 313 308 307 309
286 285 285 281 285 279 288 293 292 290 290 293 293 296 301 302 298 298 299 299 302 305 305 308 314 323 328 325 333 330 326 323 320 316 314 313 312 312 313 312 310 310 310 309
290 286 282 280 281 286 289 289 288 286 286 294 294 296 300 303 299 294 298 300 299 301 302 306 311 316 319 319 320 320 318 316 314 312 311 311 312 311 312 308 308 308 307 306
291 287 284 283 279 277 287 291 292 292 284 295 294 296 299 298 287 288 298 299 299 301 302 303 308 310 311 312 314 312 313 312 309 310 309 310 309 310 308 308 306 306 306 304
286 286 281 282 281 285 290 291 292 285 289 294 297 296 294 291 292 295 298 298 299 299 300 302 304 305 306 309 307 306 309 308 307 307 308 306 308 306 305 305 305 304 301 301
285 283 284 285 282 280 293 290 285 292 295 296 298 296 294 294 295 295 296 297 297 297 299 300 300 301 302 305 305 304 304 306 306 306 305 306 307 305 303 303 304 301 301 298
285 286 283 285 286 292 294 293 298 302 298 299 296 296 295 294 294 295 294 296 297 298 298 300 299 299 300 300 301 300 301 304 304 304 304 304 303 302 302 302 301 299 298 297
290 293 287 287 291 292 292 296 300 300 299 298 298 297 296 294 295 294 295 295 296 297 298 299 298 298 298 300 299 298 300 301 302 301 301 302 301 301 301 301 299 299 298 298
289 291 289 289 291 293 292 295 298 299 299 298 298 297 297 296 294 294 294 295 296 296 297 298 297 297 297 298 298 297 297 297 296 297 297 296 298 299 299 300 300 299 300 298
293 290 287 285 292 291 291 295 297 296 296 297 297 296 296 296 294 295 294 295 295 296 297 297 297 297 297 297 297 297 297 296 295 293 295 294 294 294 295 295 294 290 291 290
Wind_Speed
5 9 12 14 16 18 18 17 17 14 12 17 21 22 20 18 20 18 16 16 16 17 14 9 12 19 20 21 21 22 22 19 15 11 11 10 12 10 10 11 14 14 12 13
4 12 10 12 18 20 20 20 19 17 13 16 20 25 19 19 21 19 21 20 19 21 18 13 9 17 20 22 21 21 22 20 18 13 12 11 11 11 11 10 12 13 13 13
12 18 19 17 15 17 21 21 18 18 17 16 17 25 23 19 23 22 22 21 20 21 21 16 10 14 19 22 22 22 22 22 20 18 12 9 10 7 10 11 10 12 14 13
13 12 11 13 15 16 20 19 18 18 14 13 2 13 12 9 14 16 22 22 23 22 22 16 15 12 18 21 20 22 21 22 21 21 17 19 13 13 12 11 10 10 14 14
9 12 13 17 24 8 16 14 16 15 14 15 17 12 13 9 17 18 16 19 21 23 23 19 17 13 17 18 19 19 19 19 18 19 18 15 14 9 7 8 12 11 11 13
17 13 14 19 16 11 9 11 13 11 11 11 23 15 14 14 17 17 17 19 20 20 20 15 15 14 11 16 18 19 20 19 20 20 19 18 15 10 9 9 10 9 8 9
17 7 8 11 16 13 10 4 6 8 8 12 8 11 20 15 19 18 18 18 15 14 12 13 14 14 13 16 18 18 21 21 20 21 20 18 17 15 16 12 9 10 8 7
8 7 6 9 10 9 13 10 6 4 6 5 5 10 13 16 23 20 14 14 12 12 11 9 10 11 12 14 19 20 21 21 21 21 21 18 19 12 11 12 9 7 7 7
7 8 14 20 15 6 9 11 15 5 6 6 6 16 18 19 21 18 16 16 16 14 12 12 9 10 11 11 15 19 19 20 21 21 17 17 17 15 13 13 10 9 12 12
5 13 9 7 9 14 13 5 7 5 6 7 8 15 11 10 8 7 12 13 10 7 8 8 9 7 8 11 11 15 18 20 21 21 17 16 16 16 14 14 15 15 15 18
12 7 7 13 3 6 9 7 7 4 7 6 6 3 3 9 12 3 3 4 4 5 6 7 8 8 8 8 10 13 16 18 17 18 17 16 15 16 14 14 16 17 18 17
4 5 9 15 13 11 11 7 15 5 8 9 9 9 4 4 6 5 7 9 9 10 9 8 9 9 9 10 10 13 15 17 17 17 17 17 15 14 14 15 17 20 18 16
2 3 9 7 2 5 4 4 3 7 7 15 11 5 2 2 8 10 12 11 12 11 9 9 8 9 9 9 10 12 14 17 17 17 17 16 14 15 16 17 17 18 16 14
13 4 10 11 15 11 9 10 9 5 4 9 19 21 17 17 18 17 17 19 18 14 12 10 10 9 11 9 10 12 13 14 17 18 19 17 15 16 16 15 15 18 17 17
3 6 11 15 20 18 18 18 15 14 15 11 15 18 22 19 21 21 21 19 19 15 12 11 12 11 11 11 10 12 13 15 18 19 18 15 15 16 16 17 18 18 18 17
2 6 12 17 9 5 11 13 14 15 17 22 21 27 17 20 12 12 17 15 14 13 11 10 13 15 13 13 13 14 15 15 17 15 16 17 17 17 17 18 20 20 18 17
4 4 5 6 9 17 7 3 3 6 12 10 15 20 21 20 14 10 11 12 14 15 11 12 14 16 14 13 14 17 17 15 17 17 17 18 18 18 18 19 19 18 17 16
5 3 3 7 11 4 4 5 9 10 17 12 14 17 16 6 8 10 12 11 12 9 9 10 7 8 9 13 12 12 17 16 18 18 17 18 19 20 21 21 19 18 17 18
9 2 4 5 5 10 2 3 8 8 11 7 13 16 12 7 5 9 13 11 11 10 9 8 6 1 12 11 13 13 18 19 19 17 17 18 18 21 22 22 21 18 17 17
2 6 3 4 5 5 4 14 22 13 6 13 18 17 7 9 5 3 8 12 12 9 11 12 8 5 16 12 14 17 11 21 20 17 16 17 17 20 21 19 19 16 17 17
6 1 3 7 5 6 8 23 19 3 6 16 14 7 12 9 5 6 9 12 12 13 14 14 11 13 13 14 19 17 12 17 21 18 17 17 18 19 19 19 17 16 16 15
5 7 4 4 5 6 17 18 7 9 16 13 10 10 15 13 13 13 14 14 14 16 16 17 16 16 15 14 19 17 15 12 25 19 19 19 19 13 14 19 16 17 15 14
2 3 4 3 3 11 18 16 16 10 4 7 11 11 13 14 14 14 14 15 16 16 15 18 15 19 18 16 15 20 14 14 24 19 18 18 18 16 15 17 15 13 14 11
3 5 3 5 2 12 17 17 13 13 15 14 12 12 13 15 14 16 15 15 16 16 18 16 15 22 20 18 18 18 16 18 19 18 16 16 16 16 15 11 9 11 10 10
4 9 7 4 5 7 16 18 14 14 15 16 15 15 15 16 16 15 15 15 14 15 14 14 16 18 19 17 18 17 15 16 18 15 13 15 13 15 13 12 9 10 8 7
4 5 5 4 12 7 11 15 16 16 16 14 16 18 17 16 16 16 14 12 13 13 13 15 16 16 15 15 15 15 14 15 13 12 11 10 11 9 9 9 12 20 16 18
Wind_Direction
200 223 236 247 240 248 254 262 266 260 265 283 278 277 271 272 281 278 277 279 282 282 286 273 221 210 198 192 183 186 184 185 180 177 180 186 195 199 208 210 206 204 205 199
270 250 255 270 255 250 253 258 262 271 266 258 271 270 269 266 264 265 270 267 270 277 276 271 225 213 199 192 188 185 186 183 184 183 187 192 198 209 209 208 208 204 202 202
266 282 294 283 268 253 247 250 257 264 274 268 276 276 267 255 250 242 243 253 257 259 269 271 251 210 206 200 190 187 187 180 184 183 176 179 177 190 202 205 206 205 204 203
267 279 224 246 262 262 254 240 252 259 257 264 311 283 277 262 258 239 237 233 236 244 256 257 260 223 209 208 197 192 188 184 183 177 182 190 195 195 201 199 200 199 203 204
256 294 294 271 252 236 266 274 248 243 245 258 249 264 272 255 251 247 229 236 238 233 235 241 245 238 213 204 201 195 191 189 185 182 188 191 201 200 184 174 191 199 195 201
264 280 278 262 258 261 248 307 247 241 246 245 243 234 264 251 251 249 241 235 232 238 236 230 239 248 216 211 201 195 189 188 188 189 190 190 192 179 163 178 188 189 194 191
316 283 276 260 253 252 230 180 223 210 212 244 255 229 247 259 246 254 257 246 232 234 244 241 230 235 211 195 199 194 191 190 188 189 193 189 190 187 183 183 185 165 182 190
322 318 350 10 263 266 215 223 248 234 208 233 194 227 247 237 247 249 242 248 250 253 249 236 230 229 243 201 193 193 188 191 191 190 192 191 192 192 191 195 188 171 173 130
304 273 299 297 281 229 231 225 252 274 287 290 242 254 272 262 260 248 244 246 246 252 255 254 254 247 248 229 202 197 193 195 191 192 189 190 191 192 189 179 160 128 116 118
298 289 287 289 298 215 227 247 201 181 207 228 245 261 253 288 310 239 241 246 264 274 272 270 260 255 260 253 228 206 201 196 190 189 189 190 189 187 176 156 137 130 131 136
284 241 295 311 281 269 198 220 228 237 239 258 273 257 279 288 270 307 0 51 357 349 322 294 281 268 257 255 243 215 208 203 196 192 186 184 185 183 167 150 137 139 143 148
335 298 286 287 319 258 292 260 223 233 193 234 286 257 319 20 36 27 343 321 323 316 302 296 292 281 262 240 230 220 207 202 197 189 183 180 175 168 154 145 140 148 151 156
357 259 308 286 286 35 305 259 352 286 256 244 239 244 110 271 317 311 309 311 307 301 293 292 290 277 265 241 225 216 208 201 191 180 173 165 150 143 151 143 146 152 145 134
282 227 238 284 296 304 285 292 296 234 265 267 246 268 270 282 295 301 304 306 301 291 290 291 288 277 263 256 223 211 200 194 185 177 167 157 146 142 135 132 140 145 136 130
352 275 284 286 284 281 276 275 276 257 255 254 269 274 268 275 288 289 293 292 292 280 284 298 294 279 261 251 223 209 192 182 175 165 153 134 130 132 129 128 134 134 130 127
356 282 316 300 286 265 279 272 266 266 267 263 271 269 279 285 287 287 282 299 295 288 286 300 297 277 254 236 209 196 177 170 158 142 127 128 129 129 126 130 134 126 123 121
274 281 315 277 323 310 271 61 325 292 282 301 271 288 314 291 296 359 348 322 307 291 301 308 294 270 246 221 198 183 157 136 128 128 128 129 130 129 133 132 129 121 122 120
261 239 270 293 309 277 90 35 324 291 282 262 254 281 308 288 89 39 4 338 332 351 346 320 311 265 227 197 170 130 127 127 123 124 128 131 133 131 134 128 120 124 125 122
225 251 274 283 298 283 113 357 343 329 301 304 322 330 331 351 128 29 8 359 7 356 348 316 3 99 93 93 115 120 120 118 116 123 127 131 137 135 135 128 124 124 123 118
183 215 253 324 308 302 351 337 335 310 261 8 348 336 353 26 53 314 348 26 22 5 21 8 29 77 92 94 103 102 116 116 115 123 122 129 130 133 124 124 123 123 118 117
312 293 246 271 265 270 13 334 322 247 354 335 340 43 71 67 63 33 30 39 36 39 36 32 47 67 72 93 94 88 109 110 112 106 115 111 119 120 110 114 112 116 113 115
320 324 343 322 317 329 342 324 337 284 304 314 58 61 73 65 55 45 43 44 43 48 47 53 55 64 57 71 91 93 94 117 100 108 107 112 116 114 111 108 112 115 113 111
326 346 307 324 322 297 315 306 302 341 269 63 75 70 76 68 59 49 41 38 45 50 53 60 53 67 62 63 73 87 76 91 96 103 107 106 107 107 105 109 118 114 111 117
291 313 302 303 294 332 337 342 13 39 65 71 72 76 72 73 64 60 51 41 37 38 48 52 51 60 61 60 61 71 83 82 94 99 100 105 103 104 106 106 111 112 119 123
295 308 308 276 313 324 353 360 23 42 62 70 70 68 67 73 61 60 55 50 47 44 44 51 54 57 55 52 58 56 61 75 77 84 93 92 88 92 99 91 94 98 87 113
338 350 350 358 360 351 356 4 33 47 52 54 69 65 55 60 65 61 56 49 48 50 51 51 52 55 55 54 58 56 58 67 78 81 85 86 91 88 93 97 87 60 76 73